Weather History for Sheldon, IA

Change the Weather History Date:

Tuesday, January 15, 2013

  Actual Average Record
Temperature  
Mean Temperature 23 °F -  
Max Temperature 32 °F 25 °F 54 °F (1990)
Min Temperature 14 °F 5 °F -32 °F (1972)
Degree Days  
Heating Degree Days 42    
Moisture  
Dew Point 14 °F    
Average Humidity 74    
Maximum Humidity 93    
Minimum Humidity 44    
Precipitation  
Precipitation 0.00 in - - ()
Sea Level Pressure  
Sea Level Pressure 30.11 in    
Wind  
Wind Speed 11 mph (SSW)    
Max Wind Speed 20 mph    
Max Gust Speed 29 mph    
Visibility 10 miles    
Events      
Averages and records for this station are not official NWS values.
T = Trace of Precipitation, MM = Missing Value Source: NWS Daily Summary

Daily Weather History Graph

Daily Weather History Graph

Search for Another Location

Airport:

Trip Planner

Search our weather history database for the weather conditions in past years. The results will help you decide how hot, cold, wet, or windy it might be!

Date:

Astronomy

Jan. 15, 2013 Rise Set
Actual Time 7:52 AM CST 5:13 PM CST
Civil Twilight 7:20 AM CST 5:45 PM CST
Nautical Twilight 6:45 AM CST 6:20 PM CST
Astronomical Twilight 6:11 AM CST 6:54 PM CST
Moon 9:50 AM CST (1/15) 10:14 PM CST (1/15)
Length of Visible Light 10h 24m
Length of Day
9h 21m
Waxing Crescent, 19% of the Moon is Illuminated
Jan 15
Waxing Crescent
Jan 18
First Quarter
Jan 26
Full
Feb 3
Last Quarter
Feb 10
New

Hourly Weather History & Observations

Time (CST) Temp. Windchill Dew Point Humidity Pressure Visibility Wind Dir Wind Speed Gust Speed Precip Events Conditions
12:15 AM 15.8 °F 4.2 °F 10.4 °F 79% 30.25 in 10.0 mi SSW 9.2 mph - N/A   Mostly Cloudy
12:35 AM 15.8 °F 2.7 °F 10.4 °F 79% 30.25 in 10.0 mi SSW 11.5 mph - N/A   Partly Cloudy
12:55 AM 15.8 °F 2.7 °F 10.4 °F 79% 30.24 in 10.0 mi SSW 11.5 mph - N/A   Clear
1:15 AM 15.8 °F 4.2 °F 10.4 °F 79% 30.24 in 10.0 mi SSW 9.2 mph - N/A   Clear
1:35 AM 15.8 °F 3.4 °F 10.4 °F 79% 30.24 in 10.0 mi SSW 10.4 mph - N/A   Clear
1:55 AM 14.0 °F 2.9 °F 10.4 °F 86% 30.24 in 10.0 mi SSW 8.1 mph - N/A   Partly Cloudy
2:15 AM 14.0 °F 2.0 °F 10.4 °F 86% 30.24 in 10.0 mi SSW 9.2 mph - N/A   Clear
2:35 AM 14.0 °F 1.2 °F 10.4 °F 86% 30.24 in 10.0 mi SSW 10.4 mph - N/A   Scattered Clouds
2:55 AM 14.0 °F 0.5 °F 10.4 °F 86% 30.24 in 10.0 mi SSW 11.5 mph - N/A   Partly Cloudy
3:15 AM 14.0 °F 2.0 °F 12.2 °F 93% 30.24 in 10.0 mi SSW 9.2 mph - N/A   Partly Cloudy
3:35 AM 14.0 °F 2.0 °F 10.4 °F 86% 30.23 in 10.0 mi SSW 9.2 mph - N/A   Mostly Cloudy
3:55 AM 14.0 °F 1.2 °F 10.4 °F 86% 30.22 in 10.0 mi SSW 10.4 mph - N/A   Overcast
4:15 AM 14.0 °F 2.0 °F 10.4 °F 86% 30.22 in 10.0 mi SSW 9.2 mph - N/A   Mostly Cloudy
4:55 AM 14.0 °F 2.9 °F 12.2 °F 93% 30.21 in 10.0 mi SSW 8.1 mph - N/A   Mostly Cloudy
5:15 AM 14.0 °F 2.0 °F 12.2 °F 93% 30.21 in 10.0 mi SSW 9.2 mph - N/A   Overcast
5:35 AM 15.8 °F 5.1 °F 12.2 °F 86% 30.21 in 10.0 mi SSW 8.1 mph - N/A   Overcast
6:15 AM 15.8 °F 3.4 °F 12.2 °F 86% 30.20 in 10.0 mi South 10.4 mph - N/A   Mostly Cloudy
6:35 AM 15.8 °F 4.2 °F 12.2 °F 86% 30.20 in 10.0 mi South 9.2 mph - N/A   Clear
6:55 AM 14.0 °F 2.0 °F 12.2 °F 93% 30.20 in 10.0 mi South 9.2 mph - N/A   Clear
7:15 AM 14.0 °F 2.9 °F 12.2 °F 93% 30.20 in 10.0 mi South 8.1 mph - N/A   Clear
7:35 AM 14.0 °F 2.0 °F 12.2 °F 93% 30.20 in 10.0 mi SSW 9.2 mph - N/A   Clear
7:55 AM 14.0 °F 2.0 °F 12.2 °F 93% 30.20 in 10.0 mi SSW 9.2 mph - N/A   Clear
8:15 AM 14.0 °F 2.0 °F 12.2 °F 93% 30.20 in 10.0 mi SSW 9.2 mph - N/A   Clear
8:35 AM 15.8 °F 4.2 °F 12.2 °F 86% 30.20 in 10.0 mi SSW 9.2 mph - N/A   Clear
8:55 AM 17.6 °F 6.4 °F 12.2 °F 79% 30.20 in 10.0 mi SSW 9.2 mph - N/A   Clear
9:15 AM 17.6 °F 5.0 °F 14.0 °F 86% 30.19 in 10.0 mi SSW 11.5 mph - N/A   Clear
9:35 AM 19.4 °F 7.9 °F 14.0 °F 80% 30.19 in 10.0 mi SSW 10.4 mph - N/A   Clear
9:55 AM 21.2 °F 10.9 °F 15.8 °F 80% 30.19 in 10.0 mi SSW 9.2 mph - N/A   Clear
10:15 AM 21.2 °F 10.1 °F 15.8 °F 80% 30.19 in 10.0 mi SW 10.4 mph - N/A   Clear
10:35 AM 24.8 °F 13.4 °F 17.6 °F 74% 30.18 in 10.0 mi SW 12.7 mph - N/A   Clear
10:55 AM 24.8 °F 12.9 °F 15.8 °F 69% 30.17 in 10.0 mi SW 13.8 mph - N/A   Clear
11:15 AM 26.6 °F 14.7 °F 15.8 °F 64% 30.16 in 10.0 mi SW 15.0 mph - N/A   Clear
11:35 AM 26.6 °F 15.2 °F 14.0 °F 59% 30.15 in 10.0 mi SW 13.8 mph - N/A   Clear
11:55 AM 28.4 °F 17.0 °F 14.0 °F 55% 30.14 in 10.0 mi SW 15.0 mph - N/A   Clear
12:15 PM 28.4 °F 17.5 °F 15.8 °F 59% 30.13 in 10.0 mi SSW 13.8 mph - N/A   Clear
12:35 PM 28.4 °F 18.0 °F 14.0 °F 55% 30.12 in 10.0 mi SW 12.7 mph - N/A   Clear
12:55 PM 28.4 °F 18.0 °F 14.0 °F 55% 30.10 in 10.0 mi SSW 12.7 mph - N/A   Clear
1:35 PM 30.2 °F 19.3 °F 15.8 °F 55% 30.08 in 10.0 mi South 15.0 mph - N/A   Clear
1:55 PM 30.2 °F 18.9 °F 15.8 °F 55% 30.07 in 10.0 mi SSW 16.1 mph 23.0 mph N/A   Clear
2:15 PM 32.0 °F 20.1 °F 15.8 °F 51% 30.07 in 10.0 mi SSW 19.6 mph 25.3 mph N/A   Clear
2:35 PM 32.0 °F 20.8 °F 14.0 °F 48% 30.06 in 10.0 mi SW 17.3 mph 28.8 mph N/A   Partly Cloudy
2:55 PM 32.0 °F 20.1 °F 14.0 °F 48% 30.05 in 10.0 mi SW 19.6 mph 28.8 mph N/A   Clear
3:15 PM 32.0 °F 20.1 °F 14.0 °F 48% 30.05 in 10.0 mi SW 19.6 mph - N/A   Clear
3:35 PM 32.0 °F 20.5 °F 12.2 °F 44% 30.04 in 10.0 mi SW 18.4 mph 26.5 mph N/A   Clear
3:55 PM 32.0 °F 21.6 °F 12.2 °F 44% 30.04 in - SW 15.0 mph 26.5 mph N/A   Clear
4:15 PM 30.2 °F 18.9 °F 12.2 °F 47% 30.04 in 10.0 mi SW 16.1 mph - N/A   Clear
4:35 PM 30.2 °F 20.2 °F 14.0 °F 51% 30.05 in 10.0 mi SW 12.7 mph - N/A   Clear
4:55 PM 30.2 °F 21.3 °F 14.0 °F 51% 30.04 in 10.0 mi SW 10.4 mph 17.3 mph N/A   Clear
5:35 PM 28.4 °F 19.1 °F 15.8 °F 59% 30.05 in 10.0 mi SSW 10.4 mph - N/A   Clear
5:55 PM 26.6 °F 16.2 °F 15.8 °F 64% 30.04 in 10.0 mi SSW 11.5 mph - N/A   Clear
6:15 PM 26.6 °F 15.7 °F 15.8 °F 64% 30.03 in 10.0 mi South 12.7 mph - N/A   Clear
6:35 PM 24.8 °F 13.4 °F 15.8 °F 69% 30.02 in 10.0 mi SSW 12.7 mph - N/A   Clear
6:55 PM 24.8 °F 13.4 °F 15.8 °F 69% 30.02 in 10.0 mi SSW 12.7 mph - N/A   Clear
7:15 PM 24.8 °F 12.4 °F 15.8 °F 69% 30.01 in 10.0 mi South 15.0 mph - N/A   Clear
7:35 PM 24.8 °F 13.4 °F 15.8 °F 69% 30.00 in 10.0 mi South 12.7 mph - N/A   Clear
7:55 PM 23.0 °F 11.1 °F 17.6 °F 80% 29.99 in 10.0 mi South 12.7 mph - N/A   Clear
8:15 PM 24.8 °F 11.9 °F 19.4 °F 80% 29.98 in 10.0 mi SSW 16.1 mph - N/A   Clear
8:35 PM 24.8 °F 11.9 °F 19.4 °F 80% 29.97 in 10.0 mi SSW 16.1 mph - N/A   Clear
8:55 PM 23.0 °F 8.7 °F 19.4 °F 86% 29.95 in 10.0 mi SSW 18.4 mph - N/A   Clear
9:15 PM 23.0 °F 9.6 °F 19.4 °F 86% 29.93 in 10.0 mi SSW 16.1 mph - N/A   Clear
9:35 PM 23.0 °F 10.1 °F 17.6 °F 80% 29.93 in 10.0 mi SSW 15.0 mph 21.9 mph N/A   Clear
9:55 PM 23.0 °F 9.6 °F 17.6 °F 80% 29.92 in 10.0 mi SSW 16.1 mph 23.0 mph N/A   Clear
10:15 PM 23.0 °F 11.1 °F 17.6 °F 80% 29.92 in 10.0 mi SSW 12.7 mph 19.6 mph N/A   Clear
10:35 PM 23.0 °F 10.6 °F 17.6 °F 80% 29.90 in 10.0 mi SSW 13.8 mph 20.7 mph N/A   Clear
10:55 PM 23.0 °F 10.1 °F 17.6 °F 80% 29.90 in 10.0 mi SSW 15.0 mph - N/A   Clear
11:15 PM 21.2 °F 7.8 °F 17.6 °F 86% 29.89 in 10.0 mi SSW 15.0 mph - N/A   Clear
11:35 PM 21.2 °F 8.9 °F 15.8 °F 80% 29.89 in 10.0 mi SSW 12.7 mph 20.7 mph N/A   Clear